Home > Weather > Lexington-Fayette > Past weeks

Flag for USA Weather for the Past 2 Weeks in Lexington-Fayette, Kentucky, USA

Now
58 °F

Clear.


Feels Like: 57 °F
Forecast: 52 / 77 °F
Wind: 6 mph from West

Location: Blue Grass Airport

Current Time: Apr 29, 2016 at 2:47:29 AM

Latest Report: Apr 29, 2016 at 1:54 AM


Visibility: 10 mi

Pressure: 29.96 "Hg

Humidity: 70%

Dew Point: 48 °F

Location of Lexington-FayetteLocation

Historic Weather in Lexington-Fayette — Graph

°F

Lexington-Fayette Temperature Yesterday

Maximum temperature yesterday: 78 °F (at 2:54 PM)
Minimum temperature yesterday: 60 °F (at 1:01 AM)
Average temperature yesterday: 67 °F

High & Low Weather Summary for the Past Weeks

 TemperatureHumidityPressure
High84 °F (Apr 20, 4:54 PM)96% (Apr 28, 3:54 AM)30.41 "Hg (Apr 28, 3:54 AM)
Low42 °F (Apr 14, 4:54 AM)20% (Apr 18, 2:54 PM)29.72 "Hg (Apr 26, 6:54 PM)
Average65 °F58%30.04 "Hg
* Reported Apr 14 12:54 AM — Apr 29 12:54 AM, Lexington-Fayette, Weather by CustomWeather, © 2016

Note: Actual official high and low records may vary slightly from our data, if they occured in-between our weather recording intervals... More about our weather records

Advertising

Lexington-Fayette Weather History for the Previous 24 Hours

Scroll right to see more
 ConditionsComfort  
Time TempWeatherWind HumidityBarometerVisibility
12:54 AM
Fri, Apr 29
57 °FClear.6 mph72%29.95 "Hg10 mi
11:54 PM
Thu, Apr 28
61 °FClear.3 mph62%29.94 "Hg10 mi
10:54 PM65 °FClear.5 mph51%29.93 "Hg10 mi
9:54 PM66 °FClear.6 mph50%29.92 "Hg10 mi
8:54 PM69 °FSunny.7 mph45%29.89 "Hg10 mi
7:54 PM73 °FSunny.9 mph44%29.86 "Hg10 mi
6:54 PM76 °FPassing clouds.15 mph43%29.84 "Hg10 mi
5:54 PM78 °FScattered clouds.20 mph43%29.82 "Hg10 mi
4:54 PM78 °FScattered clouds.14 mph50%29.82 "Hg10 mi
3:54 PM76 °FPassing clouds.8 mph56%29.83 "Hg10 mi
2:54 PM78 °FPassing clouds.17 mph50%29.83 "Hg10 mi
1:54 PM73 °FBroken clouds.12 mph66%29.84 "Hg10 mi
12:54 PM74 °FScattered clouds.14 mph67%29.85 "Hg10 mi
11:54 AM72 °FPartly sunny.9 mph73%29.84 "Hg10 mi
10:54 AM69 °FMore clouds than sun.15 mph79%29.83 "Hg10 mi
9:54 AM68 °FScattered clouds.13 mph82%29.82 "Hg10 mi
8:54 AM64 °FSunny.9 mph81%29.83 "Hg10 mi
7:54 AM60 °FPassing clouds.5 mph93%29.83 "Hg10 mi
6:54 AM60 °FClear.5 mph93%29.80 "Hg10 mi
5:54 AM61 °FLight rain. Mostly cloudy.8 mph93%29.80 "Hg10 mi
4:58 AM60 °FThunderstorms. Fog.10 mph96%29.80 "Hg2 mi
3:54 AM60 °FFog.7 mph96%29.78 "Hg2 mi
2:54 AM61 °FMostly cloudy.7 mph93%29.79 "Hg10 mi
Weather by CustomWeather, © 2016

See weather overviewHow to use our weather pages